GFSNW_500_spd_159.txt.gz
Wind_Speed
13 16 12 12 12 13 14 16 19 20 21 21 19 15 15 17 19 20 21 22 23 22 22 21 19 21 26 24 23 26 26 28 26 28 26 23 19 16 14 12 13 15 17 21
12 13 14 11 10 10 11 12 14 17 19 19 20 18 15 14 15 16 17 18 19 20 22 23 22 19 17 18 19 20 24 26 27 25 23 20 17 15 13 14 16 19 22 25
13 13 14 11 10 9 9 9 10 12 15 17 17 18 19 18 15 13 14 15 16 16 16 18 19 19 18 15 13 14 15 17 18 19 18 18 18 18 18 20 22 24 22 27
15 12 12 12 11 10 8 6 6 7 10 12 15 16 17 18 19 17 14 13 13 13 14 14 13 13 13 13 12 10 8 8 9 9 10 12 15 18 19 20 24 24 27 27
20 16 14 12 12 12 10 7 5 4 5 8 10 12 14 16 16 17 16 16 15 13 11 11 11 12 12 11 9 8 10 9 8 8 8 9 12 13 15 17 20 20 23 26
24 21 19 16 13 13 13 11 7 5 2 3 6 8 10 11 13 14 14 15 15 14 13 12 11 10 8 8 7 7 7 7 8 8 8 8 11 13 15 19 22 25 28 31
28 27 23 20 19 16 15 15 12 9 6 2 1 3 5 7 8 9 10 11 11 11 11 12 11 10 9 7 6 4 2 1 2 5 6 8 11 15 17 20 23 26 29 32
32 32 27 23 20 21 18 19 18 15 12 9 6 4 2 1 2 3 4 5 6 6 5 6 6 6 6 5 4 4 2 2 4 6 8 10 12 16 19 22 24 27 30 33
38 37 33 28 26 24 24 23 23 20 18 15 13 11 9 7 6 5 4 3 1 1 1 1 1 2 1 3 3 5 5 7 10 12 14 16 18 23 26 28 32 34 38 42
43 42 37 34 30 28 29 26 27 26 24 21 18 17 15 13 11 9 8 6 5 4 5 6 7 7 7 8 10 12 12 13 16 18 22 23 26 30 35 37 40 45 49 52
44 44 41 38 35 33 34 33 32 31 29 27 25 22 20 17 15 14 14 13 12 11 12 12 12 13 14 16 19 20 21 24 26 30 33 34 34 38 41 44 47 52 56 60
49 47 44 44 43 41 39 40 38 35 33 32 30 27 24 22 21 19 18 19 17 16 17 17 18 17 19 21 21 23 23 28 32 33 33 38 43 47 50 54 57 59 63 66
51 48 46 44 41 41 40 42 41 42 38 36 34 33 30 27 25 25 24 24 24 25 25 24 24 25 25 26 27 27 28 33 34 37 37 43 47 51 55 58 61 62 66 68
55 49 46 44 42 40 39 40 41 45 44 42 39 37 34 32 31 29 29 28 29 31 33 33 32 32 32 33 35 32 33 39 43 44 45 50 48 53 56 60 61 64 65 67
57 51 50 47 46 43 42 42 42 42 45 46 44 43 40 36 34 33 32 33 35 36 36 37 38 37 39 39 41 34 40 45 46 48 51 52 53 56 59 62 62 63 63 61
49 49 51 50 51 49 45 42 42 46 45 44 43 45 45 43 40 38 37 38 39 40 41 42 43 42 45 48 46 40 50 50 50 52 55 54 56 57 56 59 58 58 56 54
49 49 49 49 50 49 49 47 44 42 43 46 45 44 43 42 42 42 43 42 41 44 46 48 47 45 48 50 46 51 56 49 50 50 53 51 50 51 54 54 53 52 50 49
52 51 50 52 50 49 48 49 48 44 43 43 46 45 44 43 45 46 46 46 47 49 49 47 45 49 51 51 41 54 48 48 50 52 53 52 48 48 49 49 49 47 47 45
53 52 51 51 52 52 49 48 49 47 46 47 46 45 45 46 45 45 46 48 49 50 50 50 51 53 52 39 44 49 44 47 48 47 46 44 43 45 46 46 44 43 42 39
63 59 57 54 52 52 53 51 51 51 51 49 49 49 49 47 49 47 49 51 49 49 49 52 54 54 42 38 47 45 44 45 44 42 40 41 42 42 42 41 40 40 39 38
67 64 63 62 60 59 56 52 52 53 53 54 54 55 53 51 51 50 49 49 51 52 53 54 57 57 30 38 44 43 45 44 41 39 39 41 41 41 38 38 39 39 40 41
65 64 63 64 63 62 64 61 60 61 62 60 60 59 55 54 54 53 52 50 51 56 58 60 63 45 35 37 42 44 43 41 39 39 39 40 40 40 38 39 40 42 44 46
63 61 60 59 60 65 68 64 63 62 60 59 58 54 51 54 53 52 49 51 53 57 61 62 56 33 37 41 43 44 44 41 39 38 38 40 43 43 40 40 42 45 46 47
62 60 62 61 62 65 67 64 63 60 59 58 59 59 58 57 52 54 53 55 55 60 62 52 33 36 41 40 41 43 43 42 41 40 44 44 43 44 45 46 46 47 48 50
63 66 65 62 58 57 57 58 57 56 52 52 52 53 52 52 51 53 53 54 54 58 52 36 34 39 39 39 40 41 41 42 42 41 43 43 45 46 46 47 46 47 49 51
65 67 61 56 55 53 52 51 52 53 55 54 54 53 53 53 53 53 52 53 50 44 40 40 43 50 50 43 40 41 44 44 46 44 42 43 42 41 43 46 48 51 53 55
66 57 53 53 52 51 51 53 53 55 55 56 56 58 55 55 56 52 50 45 41 43 44 45 47 50 44 41 42 46 48 49 51 45 41 39 42 41 42 46 50 53 55 57

GFSNW_500_spd_162.txt.gz
Wind_Speed
17 12 14 12 11 13 14 16 18 20 21 22 19 14 13 15 18 19 19 19 21 22 22 20 17 20 21 19 18 19 26 31 32 32 32 34 32 27 23 16 13 12 11 14
18 15 13 14 9 10 12 13 14 16 19 19 20 18 13 12 13 15 16 17 19 20 21 22 22 19 17 16 18 20 23 29 29 30 30 31 29 26 22 18 15 14 15 17
18 17 14 13 11 8 9 10 11 12 15 17 18 18 18 15 12 12 12 13 15 16 18 20 21 23 20 16 13 14 18 21 22 21 22 23 24 22 18 16 13 14 16 20
21 18 16 14 13 10 8 8 8 8 10 12 14 16 17 17 17 15 11 11 12 12 12 14 15 17 17 19 15 14 12 13 13 13 14 15 17 18 18 18 18 18 20 22
24 21 18 17 14 13 11 8 8 7 5 6 8 11 13 15 16 16 16 16 14 12 11 10 10 10 10 11 11 14 11 11 9 9 8 7 6 6 8 12 15 16 19 21
29 25 20 19 20 16 14 12 10 7 5 4 4 5 8 10 12 14 15 15 15 15 14 13 12 10 9 8 7 7 6 5 4 4 5 6 7 8 10 11 13 15 18 20
33 28 25 21 22 21 17 16 14 12 9 7 4 3 3 5 6 8 9 10 11 12 12 12 12 11 10 10 9 9 8 7 6 4 3 2 3 5 8 10 13 16 19 21
37 33 30 26 24 25 22 19 18 16 14 12 10 7 5 4 3 2 3 4 5 6 7 8 8 8 8 7 7 7 6 5 4 3 1 2 6 7 9 11 14 18 22 25
42 39 36 32 28 26 26 22 22 21 20 18 16 13 11 10 8 7 6 4 3 2 1 2 2 3 3 3 3 3 1 1 2 3 5 6 9 12 15 17 17 22 27 33
48 45 40 38 33 31 30 29 26 25 24 24 22 19 17 16 14 13 12 11 9 7 6 4 3 3 2 2 3 5 4 4 6 9 13 13 15 18 23 26 29 33 37 41
50 50 45 41 40 37 34 33 31 28 29 29 28 26 25 22 20 18 16 15 15 14 12 10 9 9 9 9 9 9 11 12 14 17 20 20 22 26 30 34 37 39 41 46
57 56 45 49 43 39 37 37 35 34 32 34 34 33 32 29 26 25 22 19 19 20 19 16 13 12 14 16 13 16 16 19 20 22 22 27 30 33 36 39 43 46 49 52
59 57 55 51 47 42 41 41 39 40 38 40 39 38 36 35 32 29 28 25 23 23 23 23 22 22 23 23 21 21 22 27 29 28 28 35 35 40 43 46 48 50 52 56
62 59 56 54 50 46 45 44 42 39 39 42 44 44 42 39 37 35 33 31 29 28 28 27 28 29 29 29 29 22 27 30 36 34 33 40 41 44 47 47 48 50 52 58
61 59 58 56 51 49 46 46 44 42 40 42 44 46 46 44 42 39 37 35 34 32 32 32 32 31 35 35 34 22 30 34 40 39 42 45 47 47 46 48 52 52 56 59
62 60 55 55 55 52 48 48 49 44 44 44 44 45 45 47 45 43 43 43 41 40 39 38 36 33 38 41 37 22 34 41 43 41 46 49 50 50 51 52 53 54 56 56
56 60 58 53 55 53 52 52 50 49 48 46 46 45 46 44 44 44 45 46 46 45 44 40 38 38 41 41 37 36 43 45 42 45 47 47 47 48 49 50 49 49 49 50
51 53 55 55 53 51 53 50 49 47 48 48 49 46 42 44 48 46 45 44 44 43 43 42 40 42 43 38 33 41 45 50 45 46 48 50 50 49 48 47 45 45 46 47
50 52 52 52 53 51 50 49 50 50 49 50 51 48 46 44 43 44 43 41 41 42 41 40 42 44 40 35 37 44 46 45 46 47 50 51 50 49 47 46 44 44 45 46
51 52 53 54 52 52 52 52 50 49 49 49 49 49 49 44 45 44 45 46 46 45 42 43 44 42 36 36 43 46 45 46 47 49 49 49 49 48 47 45 44 43 44 46
56 57 56 55 54 53 52 51 49 48 47 46 46 45 44 44 45 48 49 48 48 47 47 49 49 46 34 38 44 50 51 49 48 48 48 48 48 47 46 45 44 44 46 47
58 57 58 59 57 57 57 55 54 51 49 49 48 46 46 45 46 50 52 50 49 52 54 55 55 43 43 45 47 52 51 48 47 46 45 45 46 46 46 45 44 46 46 47
54 55 57 58 59 60 59 57 56 53 52 51 51 50 50 50 53 55 51 52 56 56 56 56 55 41 46 49 51 45 43 43 42 41 43 45 45 45 47 45 44 45 46 49
55 55 55 56 57 59 57 55 55 52 51 52 56 57 55 51 51 55 55 55 57 58 59 56 46 45 45 49 47 44 44 42 41 42 44 43 44 46 47 42 43 48 51 54
57 59 58 57 58 58 59 58 58 57 55 54 52 56 57 56 54 55 57 58 61 60 54 46 44 42 41 44 46 43 41 41 43 43 45 44 45 48 50 55 57 52 52 50
59 58 56 55 56 55 56 57 57 56 56 55 53 53 54 56 56 56 55 55 55 49 44 44 43 43 44 45 47 43 46 51 51 49 42 45 48 51 50 49 50 50 48 49
57 51 51 51 52 53 54 55 58 59 60 59 55 54 53 47 45 53 53 54 51 49 49 48 47 46 48 47 46 45 45 44 40 41 45 49 48 47 47 46 47 50 50 49

GFSNW_500_spd_165.txt.gz
Wind_Speed
15 13 14 14 14 11 12 14 16 18 20 20 21 16 15 16 18 19 19 18 19 23 23 22 20 19 17 15 15 13 15 24 27 29 33 35 35 32 31 28 27 22 17 15
17 14 13 14 13 11 9 11 12 14 16 19 19 19 15 13 14 16 17 18 18 18 18 20 23 23 20 17 13 12 17 22 26 29 33 35 34 33 31 29 26 21 15 9
20 16 14 13 13 11 9 9 9 11 12 14 17 18 18 16 13 13 14 15 17 17 16 19 20 22 22 21 16 12 13 15 17 20 23 28 29 29 28 26 24 21 16 14
25 20 16 13 13 11 10 8 7 9 9 10 12 14 16 16 16 14 11 12 13 14 15 16 17 18 20 22 22 18 14 12 12 13 17 21 22 20 21 21 21 20 20 18
30 25 20 16 15 14 11 9 7 7 7 7 8 9 11 13 15 15 14 13 11 11 12 13 14 15 15 16 18 19 17 15 15 14 13 13 13 12 11 10 8 9 10 11
33 30 25 21 17 16 15 11 10 9 7 7 5 5 6 8 10 12 13 13 14 14 13 12 11 11 12 13 13 13 12 11 10 10 9 8 8 7 6 5 4 4 5 7
36 34 28 25 22 19 18 16 12 11 10 9 8 5 3 4 5 6 7 8 10 11 12 13 13 13 12 11 11 10 10 9 9 9 9 8 7 6 5 3 2 1 3 7
40 37 32 29 27 24 20 19 16 15 13 13 12 11 8 5 4 4 4 4 4 4 6 7 8 9 10 11 11 10 10 9 10 9 6 5 4 3 2 1 3 4 7 11
45 40 37 33 31 29 25 22 21 18 16 15 15 14 14 12 10 8 7 7 6 4 1 1 2 4 5 5 6 5 5 6 6 7 5 2 3 2 2 4 8 10 15 18
49 44 42 38 35 35 31 27 24 25 22 20 19 19 18 17 16 15 14 12 11 10 8 6 5 4 3 2 2 0 1 3 3 2 1 4 4 5 10 13 14 19 23 26
55 50 47 43 39 39 36 32 29 28 29 25 23 23 23 24 22 21 19 18 16 15 14 12 11 9 8 7 6 5 4 3 5 5 7 8 10 13 18 21 25 28 31 34
59 54 51 46 43 42 38 37 36 33 34 32 28 26 28 29 29 27 26 24 23 21 20 19 17 15 12 10 9 11 11 12 12 15 13 16 19 23 26 29 32 33 37 41
63 59 57 54 49 42 41 41 41 41 36 35 33 32 31 32 33 34 32 31 29 28 26 23 21 22 21 20 17 17 18 21 22 21 20 25 27 30 33 35 38 40 43 45
59 61 59 58 55 48 49 45 45 46 40 39 36 35 35 36 37 38 38 37 35 33 33 29 26 27 26 24 22 18 22 26 31 26 26 28 30 34 36 38 40 43 45 47
61 60 57 53 53 52 51 50 48 45 43 42 38 36 36 36 37 40 42 41 40 39 38 35 33 29 33 31 24 16 24 32 37 34 30 31 34 36 38 41 42 42 46 46
57 57 57 57 56 53 51 50 49 45 45 46 41 38 37 38 38 39 41 44 46 46 44 41 38 36 39 41 32 19 30 35 36 33 34 36 37 39 40 42 43 46 47 49
47 47 50 54 55 54 51 50 48 48 49 48 46 42 40 41 41 42 43 43 43 46 47 43 42 41 44 43 33 34 36 34 34 34 37 38 40 42 42 43 45 46 49 51
42 42 43 44 47 50 54 48 50 49 50 52 51 47 43 43 45 45 43 43 44 45 45 42 42 42 40 36 34 38 40 39 39 40 41 40 40 43 45 46 47 49 50 50
44 43 43 43 43 45 44 45 51 55 49 51 52 49 47 46 44 46 46 46 45 44 44 44 44 41 33 33 36 39 41 40 40 42 42 44 46 46 47 48 48 49 50 50
47 47 47 45 44 42 43 45 49 54 52 53 53 49 48 44 44 46 46 46 46 45 42 41 40 37 33 37 38 39 41 42 43 44 46 48 49 49 48 49 50 51 51 50
51 49 47 47 46 44 45 47 47 49 49 49 49 47 45 44 45 46 46 44 45 46 44 44 42 38 31 33 38 43 48 47 45 46 48 49 48 47 49 51 51 52 51 50
52 52 52 50 49 46 47 48 49 51 52 52 49 44 44 44 42 43 45 45 44 44 43 44 43 41 39 42 44 45 46 48 51 52 51 49 48 48 49 50 50 50 50 52
57 56 56 54 53 52 51 50 48 49 51 50 48 46 47 47 48 49 48 47 48 47 47 49 47 44 46 47 47 49 51 53 53 51 50 49 47 47 47 47 48 48 48 50
48 48 50 54 55 55 55 54 50 50 52 54 55 55 53 52 52 54 53 53 53 52 50 49 48 50 50 51 52 53 53 52 50 49 49 48 47 46 45 45 45 47 48 51
47 47 48 51 52 54 54 54 55 55 55 53 52 53 53 54 55 57 58 57 56 54 51 52 53 54 54 53 50 49 50 49 49 49 48 49 48 48 49 49 50 50 52 53
49 49 50 53 49 49 50 51 50 49 50 50 50 51 52 53 56 57 56 55 53 54 54 53 54 55 55 52 48 46 47 48 48 47 47 47 48 48 48 47 49 52 53 57
48 46 48 49 50 50 49 50 50 51 52 53 53 53 52 54 56 57 57 56 55 54 53 55 56 58 56 51 49 48 48 49 49 48 48 49 48 46 43 45 52 54 55 54

GFSNW_500_spd_168.txt.gz
Wind_Speed
25 19 15 12 11 12 9 9 10 14 17 18 18 16 14 14 16 19 19 19 17 16 17 21 21 20 20 19 15 13 14 23 28 32 29 24 26 21 28 32 32 29 29 25
27 23 17 14 10 10 9 6 6 9 12 15 16 16 15 12 12 14 16 17 17 16 17 15 16 21 24 22 16 14 16 20 22 23 26 30 27 26 29 29 32 30 28 24
31 26 21 16 12 9 9 7 5 6 9 12 13 14 15 14 11 10 11 12 14 16 17 17 16 17 21 23 22 16 12 13 13 16 23 28 25 26 25 28 29 30 27 23
35 30 26 20 15 10 9 9 6 3 5 7 10 12 13 14 14 12 10 10 11 12 13 15 16 16 18 21 22 19 17 15 11 9 13 21 20 20 21 28 26 25 26 22
39 31 27 25 19 13 10 10 9 6 4 4 6 8 9 11 12 14 13 12 10 10 11 12 13 14 16 16 16 18 18 16 16 12 8 10 14 12 13 16 15 17 15 14
42 36 33 29 22 17 14 13 12 9 7 5 5 5 7 7 8 10 11 12 12 12 11 11 11 10 12 12 13 13 14 15 16 17 15 14 13 14 14 13 12 12 13 13
46 40 36 32 27 22 18 15 14 13 10 8 8 5 5 6 6 6 7 8 9 9 10 10 11 11 10 10 10 11 11 10 11 12 13 13 11 12 11 10 9 9 9 8
48 44 40 35 31 26 21 19 17 16 15 12 11 10 8 7 7 6 6 6 6 6 5 5 6 8 9 9 9 9 10 11 12 12 11 10 10 9 9 9 8 6 4 3
49 46 44 39 35 30 26 22 20 19 17 17 14 13 11 10 10 10 10 9 9 8 6 3 1 3 5 5 5 5 5 7 8 7 8 9 8 7 6 6 4 5 7 10
51 49 46 42 39 34 32 28 25 23 21 20 20 17 15 14 14 13 13 13 12 11 10 8 7 4 2 2 3 3 3 5 5 5 4 4 6 8 6 6 8 11 14 18
53 52 50 46 42 38 35 33 31 28 25 23 23 24 21 19 18 18 17 17 16 16 14 13 12 11 10 9 7 7 6 6 8 8 8 8 9 10 12 14 16 18 21 24
55 54 53 50 46 41 40 38 36 34 31 29 28 27 27 26 24 22 22 23 23 21 21 19 18 17 16 15 12 13 13 13 13 15 14 14 13 14 17 22 23 24 26 29
66 63 57 54 50 48 47 45 42 40 36 35 33 33 31 32 30 27 27 27 27 28 27 25 24 23 21 20 21 19 20 21 22 22 22 21 20 21 25 28 29 29 32 34
68 71 69 67 65 58 56 52 48 44 41 40 39 37 36 35 35 32 31 31 31 32 32 32 31 30 28 25 23 22 26 29 33 30 30 28 25 28 31 33 34 34 36 38
73 72 73 75 74 69 63 59 53 51 48 48 44 42 39 39 39 36 32 31 32 34 35 36 37 36 36 32 30 23 33 36 38 34 33 31 31 31 34 37 37 38 40 41
65 65 64 61 59 56 55 55 51 49 46 45 44 43 41 41 40 38 36 35 35 35 35 36 37 37 42 42 33 31 35 35 38 36 37 33 32 34 35 37 40 42 43 43
66 56 61 64 64 61 58 56 52 50 47 47 47 46 41 42 42 41 40 39 37 37 37 36 37 37 42 41 36 41 40 40 41 42 43 38 37 38 39 40 41 42 43 46
45 47 46 51 56 55 53 52 51 52 50 50 49 48 43 40 41 42 42 42 41 40 40 38 38 39 39 37 40 42 44 44 42 41 39 38 39 39 39 40 42 45 47 50
39 40 42 44 46 46 46 46 47 49 50 51 51 48 44 41 42 44 45 45 44 44 43 41 41 40 36 39 42 44 46 43 41 39 39 38 38 39 42 44 46 48 51 51
48 44 43 43 43 41 42 40 39 40 44 47 51 48 45 42 41 42 44 45 45 47 44 43 42 38 36 40 40 43 43 42 41 39 39 40 43 45 45 46 50 52 52 53
47 49 46 44 44 41 42 43 42 43 42 42 40 38 41 42 42 42 43 46 47 46 45 44 43 37 39 42 43 43 45 43 41 42 45 47 47 47 49 53 53 52 54 55
51 49 49 47 47 46 45 46 45 45 45 44 44 42 40 41 41 42 44 44 46 47 44 43 40 37 38 41 43 44 44 45 48 50 51 52 52 53 55 55 53 54 55 56
50 50 50 50 51 51 48 46 46 46 45 45 46 44 43 43 45 47 47 47 48 46 43 41 39 37 40 41 43 44 46 48 49 51 54 56 57 59 57 55 54 54 54 55
51 49 47 48 50 53 52 49 48 46 46 47 48 49 46 46 48 47 45 45 46 47 45 45 44 45 46 48 49 49 50 51 52 54 55 56 56 55 55 54 54 53 52 52
46 50 52 55 55 56 57 55 53 52 51 52 52 54 53 51 53 56 56 53 52 50 49 49 50 50 52 53 53 54 55 55 55 54 54 54 53 53 52 51 51 51 51 52
41 45 48 51 50 47 50 51 52 53 52 50 53 53 53 53 52 55 55 54 53 53 53 51 52 52 53 54 55 56 55 53 52 52 50 51 51 50 50 50 50 51 52 53
42 41 43 43 44 44 45 47 50 51 51 50 48 49 50 57 54 52 53 55 55 53 52 52 53 53 55 55 56 56 55 50 43 46 47 49 51 50 50 50 50 48 47 47

GFSNW_500_spd_171.txt.gz
Wind_Speed
45 40 33 28 23 18 15 14 11 9 11 14 17 17 15 14 14 16 19 21 21 21 18 18 17 16 18 18 13 9 11 11 13 7 18 24 22 20 21 17 21 25 32 32
50 45 37 31 24 19 16 13 12 8 8 10 13 15 15 15 13 14 16 17 18 19 19 18 16 16 19 22 16 11 9 13 17 13 25 24 19 21 20 20 24 27 32 33
54 49 41 33 27 22 18 13 11 9 7 6 9 12 14 15 15 13 13 14 15 16 17 18 16 13 17 25 20 14 12 13 10 14 15 18 15 20 19 16 24 24 31 31
58 51 45 37 30 25 19 16 11 10 9 6 5 7 10 13 14 15 14 13 13 14 14 15 16 16 14 15 22 25 20 14 10 14 16 16 15 14 13 15 20 17 27 26
59 53 47 38 34 28 23 18 14 11 10 8 5 4 6 8 10 13 15 15 14 13 12 12 13 13 14 15 14 13 17 20 18 13 9 9 11 12 11 16 17 17 22 21
60 55 52 45 38 30 25 22 17 14 11 11 9 5 4 5 6 8 11 13 14 14 14 12 11 11 11 11 12 13 13 14 15 16 13 10 8 8 11 12 12 16 16 17
60 58 55 47 39 34 29 25 21 17 14 11 11 10 7 4 3 5 7 9 11 13 12 12 12 10 9 9 9 9 9 9 10 10 11 12 11 12 12 14 15 16 16 16
61 59 56 48 42 38 32 28 24 20 17 15 12 12 11 9 6 4 4 6 8 9 10 10 10 10 8 9 8 8 7 7 7 8 8 8 8 9 11 12 12 13 13 13
60 59 56 50 45 40 36 31 28 24 21 18 16 13 13 13 12 9 7 5 6 7 7 7 7 6 5 5 4 4 4 5 5 5 6 8 11 13 14 13 12 13 13 10
60 58 55 51 46 42 38 35 31 28 24 21 19 18 16 14 15 15 12 10 8 7 7 7 6 5 6 5 3 2 1 2 3 4 5 6 7 9 10 10 10 10 10 12
59 58 55 52 48 45 42 39 35 31 28 25 22 22 20 20 19 17 17 16 15 12 10 9 9 9 9 8 8 8 7 6 7 8 8 9 8 11 13 12 13 14 16 18
58 57 56 53 50 47 44 42 39 35 32 30 28 26 24 23 23 23 21 21 20 19 18 16 14 13 13 14 14 14 14 14 13 14 15 15 14 14 16 18 20 22 23 25
58 58 57 54 51 48 46 44 42 39 36 35 33 31 30 28 27 26 27 26 24 25 24 22 21 20 19 17 18 18 21 22 22 22 23 23 21 22 24 25 27 29 31 32
59 58 56 55 53 50 48 46 45 43 40 38 37 37 35 34 32 30 28 29 31 30 28 26 26 26 25 23 23 22 26 29 31 29 32 28 28 30 30 31 32 35 37 38
61 59 58 56 55 52 51 50 49 48 45 43 43 43 41 39 38 36 35 33 34 34 32 32 31 28 29 29 29 25 35 38 37 35 36 34 34 34 34 35 38 41 42 42
67 66 63 58 57 55 56 57 57 56 57 53 51 48 48 46 46 42 40 39 39 39 37 35 34 33 34 32 28 30 38 41 42 39 38 37 37 38 38 40 43 43 43 44
72 66 64 65 64 64 65 64 60 59 59 58 54 51 44 48 45 42 40 39 40 42 39 37 35 33 35 34 28 32 37 38 40 42 43 43 44 44 43 42 42 43 44 45
56 66 73 71 70 66 64 65 64 62 61 61 54 48 46 45 45 45 42 40 40 42 42 38 37 38 37 36 31 37 39 40 40 41 42 43 44 45 45 42 42 43 42 42
40 55 63 64 63 65 65 60 58 60 58 59 59 55 51 50 49 46 44 41 40 41 41 40 40 39 38 39 42 40 42 42 42 43 43 43 43 43 41 42 43 42 44 47
35 31 33 42 51 52 57 59 52 52 57 55 54 52 52 52 51 47 43 41 41 41 41 42 44 40 39 42 42 42 44 44 44 42 41 40 40 40 40 40 42 46 48 49
39 40 35 34 38 41 40 43 46 48 48 49 47 49 50 47 42 40 40 41 42 43 42 43 43 38 39 43 44 43 44 45 45 44 43 43 43 41 42 45 48 49 50 52
45 44 46 45 42 43 45 47 46 46 46 45 43 42 41 39 36 35 36 38 41 45 47 45 44 41 39 39 42 43 42 43 43 42 42 43 44 46 48 50 51 52 54 56
44 45 46 46 48 47 47 46 46 45 43 42 42 41 41 40 38 40 40 42 43 43 43 45 41 40 39 40 41 41 41 41 42 44 45 47 49 52 53 55 56 57 56 56
47 46 47 49 49 47 45 46 46 44 43 44 45 45 44 43 43 44 44 45 45 44 44 43 43 42 42 42 43 44 45 46 47 49 51 53 55 55 56 57 57 57 56 56
43 45 47 48 50 50 49 49 48 44 43 44 45 47 48 48 49 49 48 48 48 47 45 44 42 43 46 47 49 50 51 52 53 54 55 55 55 56 57 57 57 56 56 55
43 47 48 48 47 47 48 49 49 47 48 48 44 41 46 47 50 50 49 49 50 49 48 48 49 50 51 52 53 54 54 55 54 54 55 55 54 54 52 51 51 53 55 55
38 38 39 40 42 44 46 49 49 49 48 48 50 52 52 54 55 56 55 55 53 52 53 54 53 53 53 53 53 53 53 53 54 54 53 52 51 49 48 50 51 52 53 53

GFSNW_500_spd_174.txt.gz
Wind_Speed
37 36 38 39 37 36 35 28 25 24 20 16 13 15 17 18 16 17 19 21 23 25 25 25 23 15 13 18 16 15 12 6 4 5 10 9 13 18 26 13 13 15 14 28
44 42 39 42 38 40 38 31 25 25 19 16 12 11 13 16 16 17 17 18 19 21 22 22 23 14 14 18 16 16 10 7 10 16 17 17 18 19 11 12 10 12 15 30
50 47 43 44 41 42 40 35 26 26 20 17 12 9 9 12 14 15 17 17 17 18 18 20 19 20 12 12 15 16 12 10 12 12 16 17 16 16 13 10 9 6 19 27
54 52 47 46 48 43 43 39 28 26 22 18 15 9 7 8 10 13 15 17 18 17 17 16 17 16 15 15 17 17 16 14 7 7 8 15 14 13 10 8 6 2 20 21
59 57 53 52 52 46 46 42 32 27 25 18 17 12 9 5 6 9 11 13 16 18 18 17 15 14 14 14 12 11 16 17 13 9 12 15 15 10 7 8 6 5 14 15
66 66 62 56 56 51 48 45 36 30 29 21 17 16 12 7 5 5 6 9 12 14 16 18 17 14 13 12 12 12 8 11 15 16 15 13 9 10 10 9 8 10 13 14
76 73 68 64 60 55 50 48 41 31 28 28 19 17 15 12 8 5 4 5 7 10 12 14 15 15 14 14 12 10 9 9 8 7 7 7 8 10 12 9 10 10 11 10
81 80 74 68 64 57 53 51 43 35 28 29 22 18 16 16 13 10 7 4 3 5 7 9 10 11 11 12 12 11 11 8 6 6 6 6 6 7 8 9 9 11 11 11
87 82 77 71 66 60 56 52 44 37 31 29 27 22 17 15 16 15 12 9 6 3 3 4 5 6 7 9 9 9 8 7 6 6 5 4 3 4 7 8 9 10 11 12
79 76 75 71 65 59 56 50 47 40 35 31 28 27 21 17 15 15 16 14 11 8 5 4 4 4 5 5 5 5 5 4 4 2 1 1 2 3 4 5 7 7 9 11
75 75 71 69 63 59 55 51 49 43 38 34 30 27 25 22 20 18 16 16 16 13 11 9 7 6 6 7 8 8 7 6 6 5 5 4 4 6 7 9 10 12 14 15
72 70 68 67 61 58 55 52 49 44 40 37 33 30 27 25 23 21 21 20 18 17 17 16 14 13 11 10 10 11 11 11 12 12 11 11 10 10 12 15 19 20 21 22
66 66 65 63 59 57 55 53 49 46 43 39 37 34 31 29 27 25 23 22 22 23 21 20 19 19 18 17 16 15 16 16 17 19 19 19 18 20 21 23 24 26 29 31
65 63 63 59 57 56 54 52 50 47 44 42 40 38 35 33 30 29 27 26 26 25 26 26 26 25 23 21 22 22 25 25 23 23 25 24 25 27 28 29 30 31 34 36
69 63 60 57 55 54 53 52 51 48 46 45 43 41 39 36 33 31 31 32 32 31 29 29 30 29 30 27 23 24 32 34 30 29 31 31 31 33 35 35 36 36 36 37
65 60 59 57 54 54 53 53 52 49 48 47 46 45 42 39 35 33 34 36 37 37 37 37 34 34 36 32 27 29 36 35 31 32 32 35 36 37 37 38 38 40 41 43
64 60 59 58 54 54 55 54 51 50 50 51 51 49 44 43 40 43 41 43 43 45 44 41 39 37 40 37 29 33 35 35 34 34 36 38 40 40 39 39 40 42 42 43
69 63 61 59 56 57 56 56 54 54 55 55 52 50 45 46 46 45 45 45 44 41 41 38 36 37 40 40 33 34 35 35 36 37 38 40 41 42 41 41 41 42 42 42
66 63 64 61 59 58 57 56 56 57 57 55 54 51 54 49 46 46 46 44 46 46 43 42 40 39 39 38 39 40 39 38 39 40 41 42 42 42 42 42 42 41 41 42
55 65 65 57 62 65 64 63 64 62 60 64 58 54 52 51 50 49 51 52 50 46 44 44 43 40 40 41 41 42 43 43 43 43 43 43 42 42 42 42 41 41 43 44
40 50 53 48 51 57 60 64 66 65 63 61 58 56 55 53 49 49 50 49 48 46 43 44 45 43 42 43 43 43 44 44 43 44 43 42 42 42 42 42 43 44 45 47
38 45 46 43 39 37 52 58 58 55 54 56 57 54 50 50 50 45 41 41 42 45 45 44 47 46 44 44 43 43 44 45 45 44 42 43 42 41 41 41 42 44 47 50
40 45 44 46 48 44 44 48 47 43 44 48 48 46 41 41 43 43 41 38 39 43 46 46 45 44 41 40 40 41 42 43 45 45 45 44 43 43 44 46 48 51 54 57
46 51 50 48 46 43 41 42 40 38 41 41 39 39 39 41 42 42 40 39 38 40 43 44 41 38 36 37 39 41 43 45 46 45 46 46 47 48 50 52 55 57 58 57
40 42 43 44 44 44 42 41 39 39 41 41 42 42 42 42 42 42 42 41 40 39 40 39 39 38 39 41 41 43 44 45 46 47 49 51 52 54 56 57 57 56 58 59
37 40 42 45 45 45 44 44 43 45 46 43 44 44 44 45 45 45 44 43 42 41 41 41 42 42 43 45 46 46 46 48 50 53 54 55 55 55 55 56 57 57 58 58
32 34 35 37 41 44 45 46 45 42 42 43 43 43 43 45 46 44 44 43 41 39 39 40 42 45 47 48 48 50 51 52 53 53 54 55 55 55 55 56 57 58 57 58